Temperature
22 20 17 17 18 18 19 19 18 14 12 13 13 10 8 8 8 8 7 7 6 5 4 3 2 1 -0 -1 -1 -2 -3 -3 -4 -4 -4 -4 -4 -4 -5 -5 -5 -6 -6 -6
20 17 17 18 18 19 19 19 18 13 12 12 12 11 9 8 8 7 7 6 6 5 4 3 2 0 -1 -2 -3 -3 -4 -4 -5 -5 -6 -6 -6 -6 -6 -6 -6 -6 -6 -6
17 16 18 19 18 18 19 17 16 15 12 11 11 11 9 8 8 7 7 6 5 4 3 2 1 -0 -2 -3 -3 -4 -5 -5 -6 -6 -6 -6 -6 -6 -6 -6 -7 -7 -7 -7
17 17 18 18 16 15 17 15 15 15 12 12 11 11 9 7 7 7 7 6 5 4 3 2 1 -1 -2 -3 -4 -4 -5 -6 -6 -7 -7 -8 -8 -8 -8 -8 -8 -8 -8 -8
16 16 16 16 15 15 15 14 14 14 13 13 11 11 10 8 7 7 7 6 5 4 3 1 0 -1 -3 -4 -4 -5 -6 -6 -7 -7 -8 -8 -8 -9 -9 -9 -9 -9 -9 -9
15 15 15 15 15 15 14 14 14 14 13 13 15 12 10 8 8 7 6 5 4 3 2 1 -1 -2 -3 -4 -5 -5 -6 -7 -7 -7 -8 -9 -9 -9 -9 -9 -10 -10 -10 -10
16 16 15 15 15 16 15 14 14 14 13 14 14 14 8 7 6 6 5 5 4 3 1 -0 -1 -3 -4 -4 -5 -6 -6 -7 -7 -8 -8 -9 -9 -10 -10 -10 -10 -10 -10 -10
18 16 15 14 14 13 15 15 13 13 14 14 14 11 5 6 6 6 6 5 3 2 1 -1 -2 -3 -4 -5 -5 -6 -6 -7 -8 -8 -9 -9 -10 -10 -10 -11 -11 -11 -11 -11
16 16 14 13 14 13 14 14 14 13 13 13 14 6 6 6 6 6 5 4 3 1 -0 -1 -2 -3 -4 -5 -5 -6 -7 -7 -8 -9 -9 -9 -10 -10 -11 -11 -11 -11 -11 -12
14 15 15 14 13 13 14 13 13 13 12 12 13 11 7 6 6 5 5 3 2 1 -1 -2 -3 -4 -4 -5 -6 -6 -7 -8 -8 -9 -9 -10 -10 -11 -11 -11 -12 -12 -12 -12
14 14 15 14 14 15 14 14 14 13 12 11 10 9 7 5 5 5 4 3 1 0 -1 -2 -3 -4 -5 -5 -6 -7 -8 -8 -9 -9 -9 -10 -11 -11 -12 -12 -12 -12 -12 -12
13 12 14 14 11 12 12 13 13 12 12 12 10 7 7 5 6 5 4 2 1 -1 -2 -3 -4 -4 -5 -6 -6 -7 -8 -9 -9 -9 -10 -10 -11 -11 -12 -12 -12 -13 -13 -13
11 12 14 13 12 11 12 12 12 11 10 8 8 8 7 6 6 5 3 2 0 -1 -2 -3 -4 -5 -5 -6 -7 -8 -8 -9 -9 -9 -10 -10 -11 -12 -12 -13 -13 -13 -13 -13
10 11 13 14 13 11 12 12 11 10 8 8 10 9 6 5 5 4 3 1 -1 -2 -3 -4 -5 -5 -6 -7 -7 -8 -8 -9 -9 -9 -10 -11 -11 -12 -13 -13 -13 -13 -13 -13
10 11 13 13 13 12 10 10 10 9 9 8 9 8 6 4 5 4 2 -0 -2 -3 -4 -4 -5 -6 -6 -7 -8 -8 -8 -9 -9 -10 -10 -11 -12 -13 -13 -14 -14 -14 -14 -14
10 10 12 11 12 10 9 9 9 9 9 9 8 7 5 5 4 3 0 -1 -3 -4 -4 -5 -5 -6 -6 -7 -8 -8 -8 -9 -9 -10 -11 -12 -13 -13 -13 -14 -14 -14 -14 -14
11 10 10 10 12 11 10 11 9 9 9 9 8 6 5 4 3 1 -1 -2 -3 -4 -4 -5 -6 -6 -7 -7 -8 -8 -8 -9 -10 -11 -12 -12 -13 -13 -13 -14 -13 -13 -13 -14
10 10 9 8 9 9 11 8 10 9 9 9 7 6 5 4 2 -0 -2 -3 -4 -4 -4 -5 -6 -6 -7 -7 -8 -8 -8 -9 -10 -11 -12 -12 -13 -13 -13 -13 -13 -13 -13 -13
8 9 8 7 8 10 9 7 8 7 7 8 6 6 4 3 2 -3 -3 -3 -4 -4 -5 -5 -6 -6 -7 -7 -8 -8 -8 -10 -11 -11 -12 -12 -13 -13 -13 -13 -13 -13 -13 -13
7 7 7 7 6 8 10 7 8 7 6 6 6 4 3 2 -1 -2 -3 -3 -3 -4 -5 -5 -6 -6 -7 -7 -7 -8 -9 -10 -11 -11 -12 -12 -13 -13 -13 -13 -13 -13 -13 -13
6 6 5 6 6 8 7 6 6 5 6 5 4 3 2 1 -1 -2 -3 -3 -4 -4 -5 -5 -6 -6 -7 -7 -8 -9 -9 -10 -11 -11 -12 -12 -13 -13 -13 -13 -13 -13 -13 -13
7 7 7 7 7 7 6 5 4 5 5 5 3 2 1 -0 -2 -3 -3 -3 -3 -4 -5 -5 -6 -6 -7 -7 -8 -9 -9 -10 -10 -11 -12 -12 -13 -13 -13 -13 -13 -13 -13 -13
10 10 9 9 9 8 7 6 6 5 4 3 3 2 1 -1 -2 -3 -3 -3 -4 -4 -5 -5 -6 -6 -6 -7 -8 -9 -9 -9 -10 -11 -12 -12 -12 -13 -13 -13 -13 -13 -13 -13
10 10 8 8 8 7 7 6 5 5 4 3 2 1 0 -1 -2 -3 -3 -3 -4 -4 -5 -5 -6 -6 -6 -7 -8 -9 -9 -9 -9 -11 -12 -12 -12 -13 -13 -13 -14 -13 -13 -13
11 6 6 7 8 6 6 5 4 3 3 2 2 1 -0 -1 -2 -3 -3 -3 -4 -4 -5 -5 -6 -6 -7 -7 -8 -8 -9 -9 -9 -11 -12 -12 -13 -13 -13 -13 -14 -13 -13 -13
9 8 7 8 9 6 5 4 3 3 3 2 2 0 -1 -2 -2 -3 -3 -3 -4 -4 -5 -5 -5 -6 -6 -7 -7 -8 -8 -8 -9 -11 -11 -12 -12 -13 -13 -13 -13 -14 -14 -13
Wind_Speed
4 5 7 8 7 7 7 7 5 6 4 3 5 9 9 7 5 2 6 7 8 9 9 9 9 10 10 11 12 13 13 14 14 12 13 13 13 12 13 19 23 24 24 26
6 6 6 5 4 6 5 5 3 5 4 2 3 6 10 9 6 5 4 5 7 8 9 9 9 9 10 11 12 12 12 12 12 11 11 9 11 9 14 19 22 23 24 25
8 4 5 4 6 7 3 5 6 3 5 3 4 6 12 10 8 6 4 3 7 9 9 9 8 9 10 10 11 13 12 12 13 17 13 12 8 9 9 11 8 20 24 24
7 3 4 4 7 7 4 6 6 4 3 4 7 3 8 11 8 8 4 6 8 8 8 8 9 9 9 9 9 10 11 10 12 15 11 14 12 12 13 11 10 19 24 24
5 6 6 6 4 5 5 4 6 6 5 4 6 5 5 9 8 8 5 8 8 8 8 9 9 9 9 9 9 9 10 10 11 13 11 11 11 10 11 12 12 10 17 21
5 3 4 3 3 3 6 7 7 5 4 5 4 6 4 2 6 7 7 8 8 8 9 9 8 8 8 8 8 9 10 10 9 10 10 11 12 13 14 14 12 12 10 13
6 5 3 2 6 3 4 6 3 3 4 3 2 0 6 8 11 9 6 6 8 9 9 8 9 8 8 9 9 9 10 11 11 11 11 11 12 11 12 13 12 13 12 11
1 4 3 4 5 4 6 5 4 5 6 6 3 4 7 9 7 4 3 7 8 8 8 8 8 8 8 9 9 10 11 11 11 11 11 9 10 9 9 11 12 12 11 10
7 2 4 2 3 4 7 5 2 4 7 6 1 7 6 7 6 3 6 8 8 8 8 8 8 8 8 8 9 10 10 11 11 11 11 10 10 11 11 10 9 7 10 16
6 4 5 4 3 1 3 4 4 4 5 6 8 4 5 6 3 6 7 8 8 8 8 8 8 8 8 8 8 9 9 10 10 11 11 14 11 10 10 9 11 11 12 17
5 5 3 4 2 1 2 3 2 4 4 3 6 1 5 7 5 4 6 8 7 8 8 8 8 8 8 8 8 8 9 10 10 11 11 12 12 10 11 9 11 10 12 15
4 3 4 4 5 3 2 4 3 3 5 4 5 0 7 7 4 5 6 7 7 8 8 8 8 9 8 9 9 9 10 10 11 11 12 13 12 11 12 12 12 15 13 14
6 4 4 1 1 1 4 3 2 2 2 3 4 1 8 6 5 6 7 8 8 8 8 8 8 9 9 9 10 10 10 11 12 13 14 14 13 13 14 14 13 16 14 12
3 4 4 5 3 1 3 4 6 4 4 5 4 3 4 5 6 7 9 9 8 8 8 8 9 9 9 10 10 11 12 12 14 14 14 14 15 15 15 15 15 15 14 13
3 4 6 8 5 4 6 7 6 8 7 6 6 6 4 6 6 8 9 8 8 8 9 9 9 9 10 11 11 11 12 13 13 14 14 14 14 15 15 15 15 14 14 16
1 4 4 6 3 3 7 9 9 8 7 8 8 3 7 6 7 8 9 8 7 7 8 9 9 10 11 11 11 12 11 12 12 13 13 14 14 15 15 15 15 15 14 13
2 3 4 5 2 6 8 5 10 5 6 5 3 3 5 5 6 6 8 7 6 7 8 8 9 9 10 10 10 12 12 13 13 13 13 12 12 13 14 15 14 13 12 11
2 2 2 5 7 6 3 4 1 6 4 4 2 5 6 5 7 9 8 7 6 6 7 7 8 9 9 8 9 10 11 13 13 12 11 11 12 12 12 12 12 11 10 10
4 2 2 2 5 9 3 3 3 4 4 5 5 6 6 6 4 5 6 6 6 5 5 6 7 8 9 9 10 11 13 13 11 11 12 12 12 12 12 12 11 10 10 10
2 3 2 3 3 6 3 6 4 3 5 6 7 7 6 4 1 2 3 5 5 5 5 6 7 7 8 9 10 11 13 12 12 13 13 13 12 12 12 12 11 10 10 10
3 4 4 5 7 9 4 7 6 4 5 8 8 7 6 4 4 6 6 5 5 5 6 7 8 8 8 10 10 11 11 12 12 13 13 12 12 12 11 10 9 10 11 11
8 6 7 5 6 10 8 8 8 5 7 8 8 7 7 8 9 7 6 4 4 5 6 7 8 9 9 10 10 10 11 11 12 13 13 12 12 12 12 10 9 9 10 10
7 7 6 8 9 3 8 7 5 9 9 8 7 9 8 8 8 7 5 4 4 5 6 6 7 9 9 10 9 10 11 12 13 13 13 12 12 10 9 9 9 8 8 8
6 3 2 6 6 7 8 8 8 8 9 10 9 9 8 8 9 7 4 3 3 4 5 6 7 9 10 10 9 9 10 11 12 13 12 12 11 10 9 9 8 8 8 8
5 8 5 7 2 7 8 8 8 10 12 12 10 8 8 9 8 6 5 4 3 3 5 6 7 8 9 9 9 9 9 10 11 11 10 11 11 10 9 10 9 11 8 11
6 9 8 8 7 8 8 12 12 13 12 12 11 9 8 8 8 7 5 3 1 3 5 6 7 8 9 9 9 9 8 10 11 11 10 9 8 9 9 8 9 17 18 19
Wind_Direction
4 48 35 9 357 324 333 343 57 103 119 250 234 153 158 162 188 103 59 38 43 37 31 35 32 29 17 11 8 360 357 354 352 352 345 342 340 337 334 342 345 341 341 339
109 56 5 328 321 307 326 328 70 135 130 256 244 185 163 168 165 81 33 34 42 38 21 19 23 27 16 10 6 357 356 351 351 349 340 336 331 329 332 340 336 337 340 338
78 45 322 339 14 340 339 13 354 359 131 233 263 230 171 162 139 146 207 102 55 39 19 10 17 24 15 11 5 355 350 348 348 347 341 338 329 331 335 336 331 337 339 336
77 38 332 38 39 350 11 30 331 298 252 230 179 272 162 161 165 186 182 78 53 43 22 14 20 20 13 11 2 352 346 344 346 347 343 341 340 337 335 333 328 335 336 333
78 23 10 38 23 340 334 329 286 274 258 268 191 243 118 145 184 182 111 65 48 41 27 22 24 18 12 10 359 347 342 342 344 346 341 338 334 332 330 329 330 332 331 331
110 96 43 1 287 251 290 270 235 250 247 261 204 188 133 178 164 113 69 48 39 35 28 22 18 13 8 7 355 344 342 341 342 343 339 338 333 333 332 333 332 331 328 330
146 128 112 304 298 206 286 315 307 269 229 219 82 222 93 73 72 76 61 43 43 35 26 14 8 5 5 360 351 345 344 341 342 341 340 335 332 331 329 332 330 329 330 331
303 137 64 26 18 334 319 338 15 316 307 315 207 113 110 101 100 111 85 61 44 32 25 15 7 8 3 355 350 346 342 339 340 340 338 331 331 329 326 327 325 325 327 326
354 62 139 73 10 335 339 35 36 278 278 277 141 96 133 132 156 105 50 49 36 29 25 14 7 9 0 353 350 344 340 337 338 339 336 330 330 327 326 324 321 323 325 327
329 307 135 131 212 193 346 336 315 301 324 307 299 103 161 164 112 43 34 40 28 28 24 11 7 5 358 353 346 342 338 335 335 337 335 333 327 324 325 323 324 325 325 326
327 303 182 189 239 99 206 225 275 279 252 269 296 16 96 110 85 39 39 47 33 32 24 11 6 360 353 350 344 340 337 338 337 335 330 326 325 325 326 324 324 323 322 325
26 314 288 91 65 32 336 343 336 306 308 296 293 115 125 128 118 74 58 53 45 39 27 14 4 353 350 348 344 341 340 340 337 333 328 325 326 327 326 325 325 324 321 323
349 299 285 237 138 219 217 182 271 333 314 268 268 292 158 155 95 66 63 59 43 33 21 10 360 351 348 345 343 342 343 340 335 333 329 327 328 328 327 327 326 324 321 322
322 287 272 292 319 29 268 196 197 215 231 254 256 43 152 110 60 49 61 59 40 26 16 5 355 348 345 344 342 341 341 338 334 333 329 328 327 328 326 325 324 323 323 325
301 288 292 289 270 220 252 262 248 222 231 251 286 2 69 82 55 53 65 52 30 16 9 2 351 344 342 341 338 340 335 332 332 329 326 324 324 323 322 324 324 324 325 327
235 288 300 286 195 230 258 240 239 248 244 255 287 337 101 73 55 56 68 47 24 11 3 353 346 342 339 334 335 334 328 329 327 319 317 318 321 324 326 326 328 327 326 324
188 294 305 288 282 275 276 239 194 201 203 221 245 122 89 51 40 66 78 53 27 14 357 346 341 337 329 329 331 326 327 324 317 312 312 316 320 325 327 330 328 325 323 323
319 270 277 298 330 275 247 16 87 178 199 191 143 98 94 72 67 89 78 58 33 13 350 339 333 324 320 325 325 326 323 316 312 313 319 324 325 325 325 324 324 324 322 322
344 312 296 307 293 277 192 173 147 167 248 170 157 127 98 63 90 85 60 61 47 17 352 334 327 323 326 330 333 328 318 314 318 329 334 330 327 328 329 330 331 331 328 325
311 306 263 196 249 261 240 137 104 102 242 138 131 125 105 68 346 154 96 66 43 15 352 341 334 331 332 333 327 318 317 326 337 338 334 330 330 330 332 336 336 335 335 337
194 195 207 220 237 266 147 136 130 167 230 143 131 125 120 135 148 129 107 78 44 15 357 354 341 336 332 321 315 316 325 337 336 335 331 331 332 332 337 339 338 339 343 343
187 195 212 204 230 257 150 151 190 193 126 129 122 121 122 121 116 113 103 85 47 14 2 356 342 330 323 316 317 325 334 333 336 335 334 335 335 341 350 344 343 343 346 347
208 203 208 205 220 160 160 175 147 131 136 126 124 128 130 129 126 121 115 90 51 23 2 349 335 325 323 318 325 334 332 339 339 337 337 337 338 344 348 347 347 347 348 351
215 124 216 271 245 178 168 126 137 135 127 123 128 130 132 132 132 136 132 97 53 16 352 341 335 327 319 320 333 332 335 342 338 337 339 341 343 347 349 352 352 352 351 355
228 159 215 250 197 133 168 155 143 120 119 121 125 127 133 133 140 144 134 102 51 357 341 333 321 311 314 326 333 336 345 343 338 337 340 344 347 346 349 354 356 358 355 7
207 186 195 230 198 177 187 162 141 139 142 142 136 132 133 139 143 141 128 113 46 322 313 314 316 319 321 328 331 338 346 344 339 342 346 347 348 350 351 350 354 3 6 10
Height
1561 1565 1574 1574 1571 1570 1567 1567 1571 1583 1587 1588 1587 1594 1601 1605 1607 1609 1610 1611 1611 1611 1610 1607 1604 1599 1594 1589 1584 1578 1572 1566 1560 1554 1548 1542 1537 1533 1529 1526 1522 1517 1512 1508
1566 1576 1577 1573 1571 1569 1568 1569 1573 1584 1586 1587 1587 1591 1597 1602 1606 1608 1610 1611 1610 1610 1608 1606 1603 1598 1593 1588 1583 1577 1571 1566 1560 1555 1549 1544 1538 1533 1529 1524 1520 1515 1511 1506
1575 1580 1576 1573 1572 1572 1570 1575 1578 1580 1587 1588 1589 1590 1594 1600 1604 1608 1609 1609 1609 1608 1607 1605 1601 1597 1592 1587 1581 1576 1570 1565 1560 1554 1548 1542 1536 1531 1526 1520 1516 1513 1509 1505
1577 1579 1577 1575 1579 1580 1576 1579 1579 1579 1586 1584 1589 1590 1592 1597 1602 1605 1607 1607 1608 1607 1606 1604 1600 1595 1591 1586 1581 1575 1570 1564 1559 1553 1547 1541 1536 1530 1525 1520 1515 1511 1506 1502
1582 1581 1579 1580 1583 1583 1580 1579 1580 1579 1581 1583 1586 1589 1590 1596 1601 1603 1605 1606 1607 1607 1605 1602 1599 1595 1590 1585 1580 1574 1569 1563 1558 1552 1547 1541 1536 1530 1524 1519 1513 1508 1503 1500
1582 1583 1583 1584 1582 1582 1580 1579 1578 1579 1582 1585 1570 1581 1587 1595 1596 1601 1604 1606 1606 1606 1604 1601 1598 1594 1589 1584 1578 1573 1567 1562 1556 1551 1545 1540 1534 1528 1522 1516 1510 1505 1500 1496
1582 1583 1584 1584 1581 1579 1580 1582 1583 1583 1585 1578 1568 1573 1596 1600 1600 1603 1605 1606 1606 1604 1603 1600 1596 1592 1587 1582 1576 1571 1565 1560 1554 1549 1543 1538 1532 1527 1521 1515 1509 1503 1498 1493
1577 1585 1586 1586 1587 1589 1581 1582 1595 1599 1589 1576 1568 1582 1605 1602 1603 1605 1605 1605 1605 1603 1601 1599 1595 1591 1586 1581 1575 1570 1564 1558 1552 1547 1541 1536 1531 1525 1520 1514 1509 1503 1497 1491
1586 1586 1588 1588 1588 1588 1586 1586 1588 1593 1585 1582 1572 1603 1605 1603 1604 1604 1604 1604 1604 1602 1600 1598 1594 1589 1585 1579 1574 1569 1563 1557 1551 1545 1539 1534 1528 1523 1518 1512 1507 1501 1495 1489
1592 1590 1586 1588 1589 1589 1588 1588 1590 1592 1596 1594 1576 1581 1597 1602 1602 1603 1603 1603 1603 1601 1599 1596 1593 1588 1583 1578 1573 1568 1562 1556 1550 1544 1538 1532 1526 1521 1515 1510 1504 1498 1493 1487
1593 1593 1588 1588 1586 1585 1588 1587 1587 1589 1591 1600 1595 1595 1597 1601 1602 1603 1602 1602 1602 1600 1598 1595 1591 1587 1582 1577 1572 1566 1560 1554 1547 1541 1535 1529 1523 1518 1512 1507 1501 1495 1490 1484
1595 1597 1590 1587 1591 1589 1589 1589 1590 1597 1594 1588 1593 1602 1598 1600 1600 1601 1601 1601 1600 1599 1596 1593 1589 1585 1580 1575 1570 1564 1558 1552 1545 1539 1532 1526 1520 1514 1509 1503 1498 1492 1487 1481
1599 1597 1594 1593 1595 1593 1590 1589 1590 1593 1599 1601 1601 1599 1598 1599 1599 1600 1600 1599 1599 1597 1595 1591 1588 1583 1579 1574 1568 1562 1556 1550 1543 1536 1530 1523 1517 1511 1505 1499 1494 1489 1484 1478
1600 1598 1596 1597 1591 1593 1589 1589 1591 1594 1601 1598 1589 1591 1598 1597 1598 1598 1598 1598 1597 1596 1593 1590 1586 1582 1577 1572 1567 1561 1554 1548 1541 1534 1527 1520 1514 1508 1502 1496 1491 1486 1481 1476
1600 1599 1590 1587 1585 1587 1589 1589 1589 1591 1592 1595 1588 1590 1593 1596 1597 1597 1597 1597 1596 1595 1592 1589 1585 1581 1576 1570 1564 1559 1552 1546 1539 1532 1525 1518 1512 1506 1500 1494 1489 1484 1478 1473
1599 1600 1594 1589 1583 1588 1588 1586 1587 1588 1588 1588 1588 1591 1594 1594 1595 1596 1596 1596 1595 1594 1591 1588 1584 1579 1574 1568 1562 1556 1550 1543 1537 1529 1523 1516 1510 1504 1499 1493 1487 1482 1476 1471
1598 1599 1599 1596 1584 1585 1584 1576 1581 1583 1582 1584 1587 1592 1592 1593 1594 1595 1595 1595 1595 1593 1590 1587 1583 1578 1573 1568 1562 1555 1548 1542 1534 1527 1521 1515 1509 1503 1497 1492 1486 1480 1475 1469
1599 1599 1601 1602 1595 1595 1575 1577 1575 1578 1579 1581 1584 1588 1590 1593 1594 1594 1594 1594 1593 1591 1589 1585 1581 1577 1572 1567 1561 1555 1548 1540 1532 1526 1521 1515 1508 1502 1497 1491 1485 1479 1474 1468
1601 1601 1602 1607 1601 1587 1579 1578 1578 1580 1581 1580 1583 1586 1589 1591 1593 1594 1593 1593 1592 1590 1588 1585 1581 1576 1571 1565 1560 1553 1545 1538 1532 1526 1520 1513 1508 1502 1496 1490 1485 1479 1474 1468
1602 1602 1605 1605 1608 1596 1575 1578 1578 1581 1583 1580 1582 1585 1588 1589 1593 1594 1592 1591 1590 1589 1586 1583 1580 1575 1570 1565 1559 1551 1544 1538 1532 1525 1519 1514 1508 1502 1497 1491 1485 1480 1475 1469
1603 1604 1608 1604 1602 1585 1577 1577 1580 1586 1579 1579 1581 1584 1586 1588 1590 1591 1590 1589 1589 1587 1585 1582 1579 1574 1569 1564 1557 1551 1545 1539 1533 1526 1520 1514 1509 1503 1498 1492 1486 1481 1476 1470
1595 1597 1598 1596 1597 1585 1575 1576 1578 1576 1574 1576 1580 1582 1584 1586 1587 1588 1588 1588 1587 1586 1584 1581 1578 1573 1569 1563 1557 1552 1546 1540 1533 1526 1520 1514 1509 1504 1498 1493 1487 1482 1477 1471
1580 1579 1579 1579 1576 1566 1567 1568 1570 1571 1573 1575 1578 1580 1582 1583 1584 1586 1586 1587 1586 1585 1583 1580 1577 1573 1568 1563 1558 1552 1547 1540 1533 1526 1521 1515 1510 1505 1499 1493 1488 1483 1478 1474
1571 1570 1572 1570 1563 1563 1565 1566 1568 1570 1571 1574 1576 1578 1579 1581 1582 1584 1585 1585 1585 1584 1582 1579 1576 1572 1567 1563 1558 1553 1547 1541 1534 1527 1522 1516 1511 1505 1500 1495 1490 1485 1480 1476
1564 1568 1569 1566 1561 1562 1562 1563 1565 1567 1570 1572 1574 1576 1577 1579 1580 1582 1583 1584 1584 1583 1581 1578 1575 1571 1567 1563 1558 1554 1548 1542 1535 1529 1523 1518 1513 1507 1502 1497 1492 1488 1484 1480
1557 1558 1561 1557 1551 1554 1555 1558 1561 1564 1567 1570 1572 1574 1576 1577 1579 1580 1581 1582 1582 1581 1580 1577 1574 1571 1567 1563 1559 1554 1549 1543 1536 1530 1525 1520 1514 1509 1504 1499 1494 1490 1487 1483